{"data":{"norad_id":57044,"epoch":"2026-09-21T21:34:19.188480Z","epoch_age_seconds":78759,"freshness":"FRESH","line1":"1 57044U 23085AS  26264.89883320  .00012523  00000+0  32117-3 0  9998","line2":"2 57044  97.4992  20.4188 0007611  96.1355 264.0758 15.39464817181717","mean_motion":15.39464817,"eccentricity":0.0007611,"inclination_deg":97.4992,"raan_deg":20.4188,"arg_perigee_deg":96.1355,"mean_anomaly_deg":264.0758,"bstar":0.00032117,"rev_number":18171,"period_min":93.53900031351,"perigee_km":442.49568632406,"apogee_km":452.88596143757,"semimajor_km":6825.8278238808,"source":"CELESTRAK","updated_at":"2026-09-22T09:00:26.000233Z"}}